| time (UTC) | temp F | wind direction | speed MPH | gust MPH | rain 1hr in | rain 24hr in | rain mn in | humidity % | barometer mb |
| 20260831081621 | 61 | 261 | 0.0 | 0.0 | 0.00 | 0.12 | 0.12 | 94 | 1014.4 |
| 20260831080011 | 61 | 261 | 0.0 | 0.0 | 0.00 | 0.12 | 0.12 | 94 | 1014.4 |
| 20260831074612 | 61 | 261 | 0.0 | 0.0 | 0.00 | 0.12 | 0.12 | 94 | 1014.3 |
| 20260831071555 | 62 | 261 | 0.0 | 2.0 | 0.00 | 0.12 | 0.12 | 92 | 1014.3 |
| 20260831070002 | 62 | 267 | 0.0 | 1.0 | 0.00 | 0.12 | 0.12 | 93 | 1014.3 |
| 20260831064533 | 62 | 270 | 0.0 | 4.0 | 0.00 | 0.12 | 0.12 | 93 | 1014.4 |
| 20260831063003 | 61 | 281 | 0.0 | 0.0 | 0.00 | 0.12 | 0.12 | 94 | 1014.3 |
| 20260831061555 | 60 | 293 | 1.0 | 2.0 | 0.00 | 0.12 | 0.12 | 94 | 1014.3 |
| 20260831060130 | 60 | 290 | 0.0 | 2.0 | 0.00 | 0.12 | 0.12 | 95 | 1014.2 |
| 20260831054611 | 59 | 267 | 1.0 | 3.0 | 0.00 | 0.12 | 0.12 | 95 | 1014.3 |
| 20260831053053 | 59 | 160 | 0.0 | 0.0 | 0.00 | 0.12 | 0.12 | 94 | 1014.2 |
| 20260831051505 | 60 | 134 | 0.0 | 2.0 | 0.02 | 0.12 | 0.12 | 94 | 1014.2 |
| 20260831050035 | 59 | 55 | 1.0 | 5.0 | 0.05 | 0.12 | 0.12 | 94 | 1014.0 |
| 20260831044636 | 60 | 239 | 0.0 | 6.0 | 0.12 | 0.12 | 0.12 | 92 | 1014.4 |
| 20260831043002 | 60 | 200 | 0.0 | 3.0 | 0.12 | 0.12 | 0.12 | 94 | 1013.9 |
| 20260831041615 | 60 | 188 | 1.0 | 5.0 | 0.10 | 0.10 | 0.10 | 92 | 1013.7 |
| 20260831040044 | 59 | 147 | 3.0 | 8.0 | 0.07 | 0.07 | 0.07 | 93 | 1013.8 |
| 20260831034616 | 58 | 49 | 0.0 | 0.0 | 0.00 | 0.00 | 0.00 | 95 | 1013.5 |
| 20260831033030 | 58 | 306 | 0.0 | 0.0 | 0.00 | 0.00 | 0.00 | 94 | 1012.7 |
| 20260831031616 | 57 | 302 | 0.0 | 0.0 | 0.00 | 0.00 | 0.00 | 93 | 1012.5 |
| 20260831030024 | 58 | 302 | 0.0 | 0.0 | 0.00 | 0.00 | 0.00 | 93 | 1012.6 |
| 20260831024619 | 58 | 302 | 0.0 | 0.0 | 0.00 | 0.00 | 0.00 | 93 | 1012.5 |
| 20260831023043 | 58 | 303 | 0.0 | 0.0 | 0.00 | 0.00 | 0.00 | 92 | 1012.6 |
| 20260831021616 | 58 | 11 | 0.0 | 0.0 | 0.00 | 0.00 | 0.00 | 92 | 1012.5 |
| 20260831020026 | 59 | 11 | 0.0 | 0.0 | 0.00 | 0.00 | 0.00 | 91 | 1012.5 |
| 20260831014616 | 59 | 23 | 0.0 | 0.0 | 0.00 | 0.00 | 0.00 | 91 | 1012.5 |
| 20260831013002 | 59 | 303 | 0.0 | 0.0 | 0.00 | 0.00 | 0.00 | 91 | 1012.8 |
| 20260831011548 | 59 | 302 | 0.0 | 0.0 | 0.00 | 0.00 | 0.00 | 90 | 1012.7 |
| 20260831010126 | 60 | 355 | 0.0 | 0.0 | 0.00 | 0.00 | 0.00 | 89 | 1012.7 |
| 20260831004534 | 60 | 10 | 0.0 | 0.0 | 0.00 | 0.00 | 0.00 | 89 | 1012.5 |
| 20260831003124 | 61 | 32 | 0.0 | 0.0 | 0.00 | 0.00 | 0.00 | 89 | 1012.8 |
| 20260831001606 | 61 | 32 | 0.0 | 0.0 | 0.00 | 0.00 | 0.00 | 89 | 1012.8 |
| 20260831000032 | 60 | 32 | 0.0 | 0.0 | 0.00 | 0.00 | 0.00 | 89 | 1013.0 |
| 20260830234618 | 60 | 284 | 0.0 | 0.0 | 0.00 | 0.00 | 0.00 | 89 | 1012.9 |
| 20260830233008 | 60 | 289 | 0.0 | 0.0 | 0.00 | 0.00 | 0.00 | 89 | 1012.9 |
| 20260830231524 | 59 | 289 | 0.0 | 0.0 | 0.00 | 0.00 | 0.00 | 90 | 1012.9 |
| 20260830230118 | 59 | 289 | 0.0 | 0.0 | 0.00 | 0.00 | 0.00 | 90 | 1012.9 |
| 20260830224555 | 60 | 289 | 0.0 | 0.0 | 0.00 | 0.00 | 0.00 | 88 | 1012.9 |
| 20260830223002 | 61 | 290 | 0.0 | 0.0 | 0.00 | 0.00 | 0.00 | 88 | 1012.9 |
| 20260830221618 | 61 | 291 | 0.0 | 0.0 | 0.00 | 0.00 | 0.00 | 88 | 1013.0 |
| 20260830220032 | 60 | 291 | 0.0 | 1.0 | 0.00 | 0.00 | 0.00 | 88 | 1012.9 |
| 20260830214503 | 61 | 13 | 0.0 | 0.0 | 0.00 | 0.00 | 0.00 | 85 | 1012.8 |
| 20260830213047 | 62 | 13 | 0.0 | 0.0 | 0.00 | 0.00 | 0.00 | 84 | 1012.7 |
| 20260830211624 | 63 | 13 | 0.0 | 0.0 | 0.00 | 0.00 | 0.00 | 82 | 1012.5 |
| 20260830210031 | 64 | 13 | 0.0 | 0.0 | 0.00 | 0.00 | 0.00 | 80 | 1012.4 |
| 20260830204620 | 65 | 296 | 2.0 | 5.0 | 0.00 | 0.00 | 0.00 | 78 | 1012.3 |
| 20260830203036 | 65 | 309 | 1.0 | 4.0 | 0.00 | 0.00 | 0.00 | 78 | 1012.4 |
| 20260830201620 | 66 | 283 | 0.0 | 4.0 | 0.00 | 0.00 | 0.00 | 76 | 1012.4 |
| 20260830200023 | 67 | 209 | 3.0 | 9.0 | 0.00 | 0.00 | 0.00 | 72 | 1012.4 |
| 20260830194620 | 68 | 305 | 0.0 | 4.0 | 0.00 | 0.00 | 0.00 | 73 | 1012.4 |
| 20260830193045 | 67 | 207 | 0.0 | 2.0 | 0.00 | 0.00 | 0.00 | 74 | 1012.1 |
| 20260830191622 | 69 | 233 | 2.0 | 7.0 | 0.00 | 0.00 | 0.00 | 68 | 1012.1 |
| 20260830190024 | 69 | 215 | 2.0 | 5.0 | 0.00 | 0.00 | 0.00 | 68 | 1011.9 |
| 20260830184618 | 69 | 151 | 0.0 | 0.0 | 0.00 | 0.00 | 0.00 | 68 | 1011.8 |
| 20260830183054 | 70 | 236 | 0.0 | 5.0 | 0.00 | 0.00 | 0.00 | 66 | 1011.5 |
| 20260830181635 | 71 | 215 | 0.0 | 6.0 | 0.00 | 0.00 | 0.00 | 63 | 1011.3 |
| 20260830180039 | 72 | 199 | 0.0 | 8.0 | 0.00 | 0.00 | 0.00 | 63 | 1011.1 |
| 20260830171535 | 75 | 133 | 0.0 | 1.0 | 0.00 | 0.00 | 0.00 | 58 | 1010.5 |
| 20260830170131 | 77 | 205 | 0.0 | 3.0 | 0.00 | 0.00 | 0.00 | 57 | 1010.4 |
| 20260830163106 | 79 | 205 | 0.0 | 1.0 | 0.00 | 0.00 | 0.00 | 56 | 1010.4 |
| 20260830154703 | 80 | 212 | 0.0 | 1.0 | 0.00 | 0.00 | 0.00 | 58 | 1010.4 |
| 20260830153036 | 82 | 265 | 0.0 | 1.0 | 0.00 | 0.00 | 0.00 | 59 | 1010.3 |
| 20260830151614 | 83 | 280 | 0.0 | 3.0 | 0.00 | 0.00 | 0.00 | 52 | 1010.4 |
| 20260830150106 | 84 | 100 | 0.0 | 1.0 | 0.00 | 0.00 | 0.00 | 48 | 1010.4 |
| 20260830144530 | 84 | 161 | 0.0 | 2.0 | 0.00 | 0.00 | 0.00 | 51 | 1010.4 |
| 20260830143122 | 83 | 80 | 0.0 | 4.0 | 0.00 | 0.00 | 0.00 | 50 | 1010.5 |
| 20260830141550 | 83 | 75 | 1.0 | 7.0 | 0.00 | 0.00 | 0.00 | 47 | 1010.7 |
| 20260830140120 | 83 | 63 | 0.0 | 6.0 | 0.00 | 0.00 | 0.00 | 52 | 1010.8 |
| 20260830134536 | 83 | 117 | 0.0 | 3.0 | 0.00 | 0.00 | 0.00 | 50 | 1010.9 |
| 20260830133119 | 82 | 56 | 0.0 | 5.0 | 0.00 | 0.00 | 0.00 | 47 | 1011.1 |
| 20260830131526 | 82 | 85 | 0.0 | 4.0 | 0.00 | 0.00 | 0.00 | 51 | 1011.3 |
| 20260830130115 | 82 | 232 | 0.0 | 3.0 | 0.00 | 0.00 | 0.00 | 55 | 1011.4 |
| 20260830124504 | 80 | 204 | 0.0 | 3.0 | 0.00 | 0.00 | 0.00 | 56 | 1011.7 |
| 20260830123038 | 81 | 231 | 0.0 | 2.0 | 0.00 | 0.00 | 0.00 | 50 | 1011.9 |
| 20260830121621 | 81 | 80 | 0.0 | 3.0 | 0.00 | 0.00 | 0.00 | 51 | 1012.0 |
| 20260830120059 | 80 | 48 | 0.0 | 3.0 | 0.00 | 0.00 | 0.00 | 56 | 1012.2 |
| 20260830114631 | 79 | 84 | 0.0 | 3.0 | 0.00 | 0.00 | 0.00 | 51 | 1012.4 |
| 20260830113114 | 79 | 225 | 0.0 | 1.0 | 0.00 | 0.00 | 0.00 | 55 | 1012.5 |
| 20260830111502 | 78 | 206 | 0.0 | 1.0 | 0.00 | 0.00 | 0.00 | 55 | 1012.8 |
| 20260830110136 | 77 | 102 | 0.0 | 3.0 | 0.00 | 0.00 | 0.00 | 57 | 1013.1 |
| 20260830104612 | 76 | 67 | 0.0 | 2.0 | 0.00 | 0.00 | 0.00 | 54 | 1013.3 |
| 20260830103030 | 75 | 69 | 0.0 | 3.0 | 0.00 | 0.00 | 0.00 | 57 | 1013.5 |
| 20260830101627 | 75 | 167 | 0.0 | 4.0 | 0.00 | 0.00 | 0.00 | 64 | 1013.9 |
| 20260830100026 | 73 | 170 | 0.0 | 0.0 | 0.00 | 0.00 | 0.00 | 64 | 1014.2 |
| 20260830094620 | 73 | 93 | 0.0 | 0.0 | 0.00 | 0.00 | 0.00 | 64 | 1014.3 |
| 20260830093027 | 72 | 321 | 0.0 | 0.0 | 0.00 | 0.00 | 0.00 | 68 | 1014.6 |
| 20260830091626 | 71 | 333 | 0.0 | 0.0 | 0.00 | 0.00 | 0.00 | 65 | 1014.8 |
| 20260830090047 | 70 | 28 | 0.0 | 0.0 | 0.00 | 0.00 | 0.00 | 66 | 1015.0 |
| 20260830084509 | 69 | 259 | 0.0 | 0.0 | 0.00 | 0.00 | 0.00 | 71 | 1015.2 |
| 20260830083154 | 68 | 253 | 0.0 | 0.0 | 0.00 | 0.00 | 0.00 | 72 | 1015.4 |